Tracking 28126 objects as of 1-Oct-2023
HD Live streaming from Space Station
objects crossing your sky now

SL-8 R/B

Track SL-8 R/B now!
10-day predictions


NORAD ID: 24306
Int'l Code: 1996-052C
Perigee: 968.4 km
Apogee: 1,008.8 km
Inclination: 82.9 °
Period: 104.7 minutes
Semi major axis: 7359 km
RCS: 5.014 m2 (large)
Launch date: September 5, 1996
Source: Commonwealth of Independent States (former USSR) (CIS)
Launch site: PLESETSK MISSILE AND SPACE COMPLEX (PKMTR)

Note: This is a ROCKET BODY
Your satellite tracking list
Your tracking list is empty




NASA's NSSDC Master Catalog

Two Line Element Set (TLE):
1 24306U 96052C   23274.49330202  .00000169  00000-0  16018-3 0  9993
2 24306  82.9318  76.9905 0027441  92.6591 267.7707 13.75051392358372
Source of the keplerian elements: AFSPC